Litchfield, MN

2:20 PM CDT on April 27, 2017 (GMT -0500)
Litchfield Municipal

Weather History for KLJF - June, 2014

Change the Weather History Date:

Saturday, June 28, 2014

  Actual Average Record
Temperature  
Mean Temperature 76 °F -  
Max Temperature 82 °F 81 °F 99 °F (1961)
Min Temperature 69 °F 60 °F 35 °F (2000)
Cooling Degree Days 10    
Growing Degree Days 26 (Base 50)    
Moisture  
Dew Point 71 °F    
Average Humidity 85    
Maximum Humidity 94    
Minimum Humidity 61    
Precipitation  
Precipitation 0.00 in - - ()
Sea Level Pressure  
Sea Level Pressure 29.70 in    
Wind  
Wind Speed 9 mph (SSE)    
Max Wind Speed 14 mph    
Max Gust Speed 23 mph    
Visibility 10 miles    
Events Rain , Thunderstorm    
Averages and records for this station are not official NWS values.
T = Trace of Precipitation, MM = Missing Value Source: NWS Daily Summary

Daily Weather History Graph

Daily Weather History Graph

Search for Another Location

Airport or City:

Trip Planner

Search our weather history database for the weather conditions in past years. The results will help you decide how hot, cold, wet, or windy it might be!

Date:

Astronomy

Jun. 28, 2014 Rise Set
Actual Time 5:33 AM CDT 9:09 PM CDT
Civil Twilight 4:55 AM CDT 9:46 PM CDT
Nautical Twilight 4:06 AM CDT 10:36 PM CDT
Astronomical Twilight 3:00 AM CDT 11:41 PM CDT
Moon 7:03 AM CDT (6/28) 9:47 PM CDT (6/28)
Length of Visible Light 16h 50m
Length of Day
15h 35m
New Moon, 2% of the Moon is Illuminated
Jun 28
New Moon
Jul 5
First Quarter
Jul 12
Full
Jul 18
Last Quarter
Jul 26
New

Hourly Weather History & Observations

Time (CDT) Temp. Heat Index Dew Point Humidity Pressure Visibility Wind Dir Wind Speed Gust Speed Precip Events Conditions
12:13 AM 75.2 °F - 71.6 °F 89% 29.76 in 10.0 mi SSE 11.5 mph 17.3 mph N/A   Scattered Clouds
12:32 AM 75.2 °F - 71.6 °F 89% 29.76 in 10.0 mi SSE 9.2 mph 17.3 mph N/A   Scattered Clouds
12:53 AM 75.2 °F - 73.4 °F 94% 29.75 in 10.0 mi SE 12.7 mph 19.6 mph N/A   Light Drizzle
1:13 AM 75.2 °F - 73.4 °F 94% 29.73 in 10.0 mi SSE 10.4 mph 19.6 mph N/A   Drizzle
1:32 AM 75.2 °F - 73.4 °F 94% 29.73 in 10.0 mi SE 10.4 mph 20.7 mph N/A   Drizzle
1:53 AM 75.2 °F - 73.4 °F 94% 29.74 in 10.0 mi SSE 8.1 mph 17.3 mph N/A   Overcast
2:12 AM 75.2 °F - 73.4 °F 94% 29.74 in 10.0 mi SSE 8.1 mph 18.4 mph N/A   Overcast
2:33 AM 75.2 °F - 73.4 °F 94% 29.73 in 10.0 mi SSE 12.7 mph 21.9 mph N/A   Overcast
2:52 AM 75.2 °F - 73.4 °F 94% 29.72 in 10.0 mi SSE 9.2 mph 18.4 mph N/A   Overcast
3:13 AM 75.2 °F - 73.4 °F 94% 29.72 in 10.0 mi SSE 8.1 mph - N/A   Mostly Cloudy
3:33 AM 75.2 °F - 73.4 °F 94% 29.72 in 10.0 mi SSE 8.1 mph - N/A   Mostly Cloudy
3:52 AM 75.2 °F - 73.4 °F 94% 29.71 in 10.0 mi SSE 8.1 mph - N/A   Overcast
4:13 AM 75.2 °F - 73.4 °F 94% 29.71 in 10.0 mi SSE 8.1 mph - N/A   Overcast
4:33 AM 75.2 °F - 73.4 °F 94% 29.71 in 10.0 mi SSE 9.2 mph - N/A   Overcast
4:52 AM 75.2 °F - 73.4 °F 94% 29.71 in 10.0 mi SSE 8.1 mph - N/A   Scattered Clouds
5:13 AM 73.4 °F - 71.6 °F 94% 29.70 in 10.0 mi SE 8.1 mph - N/A   Clear
5:33 AM 73.4 °F - 71.6 °F 94% 29.72 in 10.0 mi SSE 10.4 mph - N/A   Clear
5:52 AM 73.4 °F - 71.6 °F 94% 29.72 in 10.0 mi SSE 9.2 mph 18.4 mph N/A   Clear
6:13 AM 73.4 °F - 71.6 °F 94% 29.72 in 10.0 mi SE 10.4 mph 20.7 mph N/A   Scattered Clouds
6:33 AM 73.4 °F - 71.6 °F 94% 29.73 in 10.0 mi SSE 8.1 mph - N/A   Overcast
6:52 AM 75.2 °F - 71.6 °F 89% 29.73 in 10.0 mi SSE 11.5 mph 16.1 mph N/A   Overcast
7:13 AM 75.2 °F - 71.6 °F 89% 29.73 in 10.0 mi SE 6.9 mph 19.6 mph N/A   Overcast
7:33 AM 75.2 °F - 71.6 °F 89% 29.72 in 10.0 mi SE 10.4 mph 18.4 mph N/A   Overcast
7:52 AM 75.2 °F - 71.6 °F 89% 29.71 in 10.0 mi SE 12.7 mph 20.7 mph N/A   Mostly Cloudy
8:13 AM 75.2 °F - 71.6 °F 89% 29.71 in 10.0 mi SE 13.8 mph 19.6 mph N/A   Overcast
8:33 AM 75.2 °F - 71.6 °F 89% 29.71 in 10.0 mi SSE 11.5 mph 19.6 mph N/A   Overcast
8:52 AM 75.2 °F - 71.6 °F 89% 29.71 in 10.0 mi SSE 11.5 mph 20.7 mph N/A   Overcast
9:13 AM 78.8 °F - 71.6 °F 78% 29.71 in 10.0 mi SSE 12.7 mph 23.0 mph N/A   Overcast
9:33 AM 77.0 °F - 71.6 °F 83% 29.72 in 10.0 mi SSE 10.4 mph 18.4 mph N/A   Overcast
9:53 AM 78.8 °F - 71.6 °F 78% 29.71 in 10.0 mi SSE 11.5 mph 17.3 mph N/A   Overcast
10:12 AM 78.8 °F - 71.6 °F 78% 29.71 in 10.0 mi SSE 12.7 mph 21.9 mph N/A   Overcast
10:33 AM 78.8 °F - 71.6 °F 78% 29.70 in 10.0 mi SSE 8.1 mph 17.3 mph N/A   Overcast
10:53 AM 78.8 °F - 71.6 °F 78% 29.70 in 10.0 mi SSE 10.4 mph 18.4 mph N/A   Overcast
11:12 AM 78.8 °F - 71.6 °F 78% 29.70 in 10.0 mi SSE 11.5 mph 18.4 mph N/A   Overcast
11:33 AM 78.8 °F - 71.6 °F 78% 29.71 in 10.0 mi SSE 10.4 mph 17.3 mph N/A   Overcast
11:52 AM 78.8 °F - 71.6 °F 78% 29.71 in 10.0 mi SSE 10.4 mph 19.6 mph N/A   Overcast
12:13 PM 78.8 °F - 71.6 °F 78% 29.71 in 10.0 mi SSE 6.9 mph 17.3 mph N/A   Overcast
12:32 PM 75.2 °F - 73.4 °F 94% 29.72 in 5.0 mi SSE 8.1 mph - N/A Rain Light Rain
12:53 PM 80.6 °F 85.4 °F 73.4 °F 79% 29.71 in 10.0 mi SSE 10.4 mph 21.9 mph N/A   Scattered Clouds
1:12 PM 80.6 °F 85.4 °F 73.4 °F 79% 29.70 in 10.0 mi SSE 10.4 mph 18.4 mph N/A   Mostly Cloudy
1:32 PM 80.6 °F 85.4 °F 73.4 °F 79% 29.69 in 10.0 mi SSE 12.7 mph 21.9 mph N/A   Mostly Cloudy
1:53 PM 82.4 °F 87.2 °F 71.6 °F 70% 29.68 in 10.0 mi SSE 9.2 mph 18.4 mph N/A   Scattered Clouds
2:12 PM 80.6 °F 84.6 °F 71.6 °F 74% 29.69 in 10.0 mi SSE 11.5 mph 18.4 mph N/A   Scattered Clouds
2:32 PM 78.8 °F - 73.4 °F 83% 29.68 in 10.0 mi SSE 9.2 mph - N/A   Scattered Clouds
2:53 PM 78.8 °F - 73.4 °F 83% 29.69 in 10.0 mi SSE 10.4 mph 17.3 mph N/A   Scattered Clouds
3:32 PM 78.8 °F - 71.6 °F 78% 29.67 in 10.0 mi SSE 6.9 mph - N/A   Clear
3:53 PM 78.8 °F - 73.4 °F 83% 29.68 in 10.0 mi SE 10.4 mph 16.1 mph N/A Thunderstorm Clear
4:12 PM 78.8 °F - 73.4 °F 83% 29.67 in 10.0 mi SSE 8.1 mph 17.3 mph N/A   Clear
4:32 PM 78.8 °F - 71.6 °F 78% 29.64 in 10.0 mi SSE 6.9 mph 16.1 mph N/A Thunderstorm Thunderstorm
4:53 PM 78.8 °F - 73.4 °F 83% 29.66 in 10.0 mi SE 8.1 mph - N/A   Clear
5:12 PM 80.6 °F 85.4 °F 73.4 °F 79% 29.64 in 10.0 mi SE 9.2 mph - N/A   Clear
5:32 PM 77.0 °F - 73.4 °F 89% 29.65 in 10.0 mi SE 9.2 mph - N/A   Clear
5:53 PM 77.0 °F - 73.4 °F 89% 29.63 in 10.0 mi SE 10.4 mph 16.1 mph N/A   Clear
6:12 PM 75.2 °F - 71.6 °F 89% 29.63 in 10.0 mi SSE 6.9 mph - N/A   Clear
6:32 PM 75.2 °F - 71.6 °F 89% 29.65 in 10.0 mi SE 5.8 mph - N/A   Clear
6:53 PM 75.2 °F - 71.6 °F 89% 29.65 in 10.0 mi SSE 9.2 mph 16.1 mph N/A   Clear
7:12 PM 75.2 °F - 71.6 °F 89% 29.66 in 10.0 mi SSE 5.8 mph - N/A   Clear
7:33 PM 73.4 °F - 71.6 °F 94% 29.66 in 10.0 mi SSE 6.9 mph - N/A   Clear
7:52 PM 75.2 °F - 71.6 °F 89% 29.66 in 10.0 mi SSE 5.8 mph - N/A   Clear
8:12 PM 75.2 °F - 71.6 °F 89% 29.65 in 10.0 mi SSE 5.8 mph - N/A   Clear
8:33 PM 75.2 °F - 71.6 °F 89% 29.65 in 10.0 mi SSE 5.8 mph - N/A   Clear
8:52 PM 73.4 °F - 71.6 °F 94% 29.65 in 10.0 mi Calm Calm - N/A   Clear
9:13 PM 73.4 °F - 68.0 °F 83% 29.65 in 10.0 mi SW 8.1 mph - N/A   Clear
9:33 PM 73.4 °F - 59.0 °F 61% 29.67 in 10.0 mi SW 6.9 mph - N/A   Clear
9:52 PM 73.4 °F - 60.8 °F 65% 29.69 in 10.0 mi SW 3.5 mph - N/A   Clear
10:13 PM 73.4 °F - 60.8 °F 65% 29.70 in 10.0 mi Calm Calm - N/A   Clear
10:32 PM 71.6 °F - 60.8 °F 69% 29.71 in 10.0 mi SSW 3.5 mph - N/A   Clear
10:53 PM 71.6 °F - 62.6 °F 73% 29.70 in 10.0 mi SW 3.5 mph - N/A   Scattered Clouds
11:13 PM 71.6 °F - 62.6 °F 73% 29.70 in 10.0 mi Calm Calm - N/A   Mostly Cloudy
11:32 PM 69.8 °F - 62.6 °F 78% 29.71 in 10.0 mi Calm Calm - N/A   Scattered Clouds
11:53 PM 69.8 °F - 64.4 °F 83% 29.71 in 10.0 mi SSW 3.5 mph - N/A   Scattered Clouds